Lid_Strength_Index
8 8 7 9 9 8 10 11 12 10 10 8 7 7 6 6 5 5 5 4 4 3 3 3 2 2 1 1 1 1 1 0
9 8 7 8 7 9 9 14 14 11 12 11 9 8 6 6 6 5 5 4 4 3 3 2 2 2 1 1 1 1 0 0
10 8 8 9 9 9 9 10 12 13 11 8 8 7 7 6 5 5 5 4 4 4 3 2 2 2 1 1 1 1 1 0
10 8 7 7 8 8 10 13 12 12 11 6 7 6 6 6 5 5 4 4 4 3 3 3 2 2 2 1 1 1 0 0
10 8 7 8 8 8 8 9 13 12 10 7 6 6 6 6 6 5 5 4 4 3 3 3 3 2 2 2 1 1 1 1
11 9 8 10 9 8 8 10 11 10 9 8 7 7 6 6 5 5 5 5 4 4 3 3 3 2 2 2 1 1 1 1
8 8 8 9 8 9 9 9 10 9 9 7 7 7 6 6 6 6 6 5 4 4 4 3 3 2 2 2 1 1 1 1
10 9 8 9 8 8 8 9 9 9 9 6 6 5 6 6 6 6 6 5 4 4 3 3 3 2 2 2 2 1 1 1
10 10 9 11 9 8 8 8 8 10 7 6 7 6 6 6 6 6 6 5 4 3 3 3 2 2 2 2 1 1 1 1
11 10 14 9 7 7 8 7 7 7 6 6 7 6 5 5 5 5 5 4 3 3 3 2 2 2 1 1 1 1 1 1
12 12 11 9 8 8 9 8 6 6 6 7 6 6 6 4 4 4 3 3 3 2 2 2 2 1 1 1 1 1 2 1
11 13 13 9 7 5 6 10 6 6 7 7 7 9 8 5 4 4 3 3 3 2 2 2 2 1 2 2 2 2 1 1
11 12 10 7 6 5 11 9 6 6 6 7 8 7 5 4 4 3 3 3 2 2 2 2 1 1 2 2 2 1 1 1
12 13 13 6 7 9 7 5 6 6 6 6 6 5 5 4 4 4 4 3 3 3 3 2 1 1 2 2 1 1 2 2
10 9 7 6 6 5 5 6 5 5 5 5 5 5 5 5 4 4 4 3 3 3 3 3 2 2 3 3 2 2 2 3
9 7 7 5 4 4 4 4 4 4 4 4 5 5 4 4 4 4 3 3 3 3 3 4 3 3 4 4 3 3 2 2
9 7 6 5 5 4 4 4 4 4 4 4 4 4 4 4 4 4 3 3 2 3 4 4 4 4 4 4 2 2 2 3
8 6 6 6 4 4 4 4 4 4 4 4 3 4 3 4 3 3 3 3 3 4 4 4 4 4 4 4 3 4 4 4
6 4 4 4 4 3 4 4 4 4 4 4 3 3 3 4 3 5 3 4 4 5 5 5 5 5 4 4 4 4 5 5